Regional Weather Roundup
Issued by NWS

Home | Current Version | Previous Version | Graphics & Text | Print | Product List | Glossary On
Versions: 1 2 3 4 5 6 7 8 9 10 11 12 13 14 15 16 17 18 19 20 21 22 23 24 25 26 27 28 29 30 31 32 33 34 35 36 37 38 39 40 41 42 43 44 45 46 47 48 49 50
000
ASUS43 KFSD 300710
RWRSD

WEATHER ROUNDUP FOR SOUTH DAKOTA
NATIONAL WEATHER SERVICE SIOUX FALLS SD
200 AM CDT WED JUL 30 2014

NOTE: "FAIR" INDICATES FEW OR NO CLOUDS BELOW 12,000 FEET WITH NO
SIGNIFICANT WEATHER AND/OR OBSTRUCTIONS TO VISIBILITY.


SDZ001>005-009-010-012>017-300800-
NORTHWEST AND NORTH CENTRAL SOUTH DAKOTA

CITY           SKY/WX    TMP DP  RH WIND       PRES   REMARKS
BUFFALO          N/A     62  52  69 W8        30.12R
MOBRIDGE       PTCLDY    60  54  80 E6        30.14R
$$

SDZ012>016-024>037-041>051-057-063-072>074-300800-
SOUTHWEST AND SOUTH CENTRAL SOUTH DAKOTA

CITY           SKY/WX    TMP DP  RH WIND       PRES   REMARKS
RAPID CTY ARPT PTCLDY    56  50  80 CALM      30.21S
PIERRE         CLOUDY    62  56  80 CALM      30.14S
CUSTER         PTCLDY    53  46  77 W3        30.33S
ELLSWORTH AFB  PTCLDY    60  52  77 S5        30.20S
PHILIP         CLEAR     57  49  74 CALM      30.17S
PINE RIDGE     MOCLDY    51  50  96 CALM      30.24S
WINNER         FAIR      61  50  67 S6        30.17S
$$

SDZ004>011-016>023-039-040-300800-
NORTHEAST SOUTH DAKOTA

CITY           SKY/WX    TMP DP  RH WIND       PRES   REMARKS
ABERDEEN       CLEAR     52  51  97 CALM      30.14S
WATERTOWN      CLEAR     57  52  83 CALM      30.15S
SISSETON         N/A     53  52  96 CALM      30.12S
$$

SDZ017-020-022-023-036>040-048>070-300800-
SOUTHEAST SOUTH DAKOTA

CITY           SKY/WX    TMP DP  RH WIND       PRES   REMARKS
SIOUX FALLS    CLEAR     55  53  93 CALM      30.15R
HURON          CLEAR     54  52  93 CALM      30.15S
CHAMBERLAIN    PTCLDY    55  51  86 CALM      30.16S
MITCHELL       CLEAR     56  53  90 CALM      30.15S
YANKTON        PTCLDY    61  55  82 CALM      30.15S
$$

ABBREVIATIONS USED IN REMARKS
   TC - TEMPERATURE IN CELSIUS
  WCI - WIND CHILL INDEX
   HX - HEAT INDEX
  VSB - VISIBILITY




USA.gov is the U.S. government's official web portal to all federal, state and local government web resources and services.